When you browse on this site, cookies collect data to enhance your experience and personalize the content and advertising you see.
Visit our Privacy Policy to learn more. By continuing to use the site, you agree to this use of cookies and data.
  • In Schweiz
  • Länderverzeichnis
  • Für 7 Tage
  • Wassertemperatur
  • Satellitenkarten
  • Wetterkarte
  • Widgets
  • user-avatar
    Anmelden

    Stündliche Wetter Bern

    Heute, 16 Februar, Samstag

    Zeit Temperatur Niederschläge Wind Luftdruck Luftfeuchtigkeit
    00:00 +4°C° 0 mm 1 m/S 723 mmHg 69%
    01:00 +4°C° 0 mm 1 m/S 723 mmHg 67%
    02:00 +4°C° 0 mm 1 m/S 723 mmHg 65%
    03:00 +3°C° 0 mm 2 m/S 723 mmHg 63%
    04:00 +3°C° 0 mm 2 m/S 723 mmHg 62%
    05:00 +3°C° 0 mm 2 m/S 723 mmHg 61%
    06:00 +2°C° 0 mm 1 m/S 724 mmHg 63%
    07:00 +5°C° 0 mm 1 m/S 724 mmHg 61%
    08:00 +7°C° 0 mm 1 m/S 724 mmHg 58%
    09:00 +9°C° 0 mm 1 m/S 723 mmHg 55%
    10:00 +11°C° 0 mm 1 m/S 723 mmHg 52%
    11:00 +14°C° 0 mm 1 m/S 723 mmHg 48%
    12:00 +15°C° 0 mm 1 m/S 723 mmHg 44%
    13:00 +15°C° 0 mm 1 m/S 723 mmHg 48%
    14:00 +15°C° 0 mm 1 m/S 723 mmHg 52%
    15:00 +14°C° 0 mm 0 m/S 722 mmHg 56%
    16:00 +13°C° 0 mm 1 m/S 722 mmHg 59%
    17:00 +10°C° 0 mm 1 m/S 722 mmHg 63%
    18:00 +8°C° 0 mm 1 m/S 722 mmHg 66%
    19:00 +7°C° 0 mm 1 m/S 722 mmHg 65%
    20:00 +6°C° 0 mm 1 m/S 722 mmHg 64%
    21:00 +6°C° 0 mm 1 m/S 722 mmHg 63%
    22:00 +5°C° 0 mm 1 m/S 722 mmHg 61%
    23:00 +5°C° 0 mm 1 m/S 722 mmHg 60%

    Morgen, 17 Februar, Sonntag

    Zeit Temperatur Niederschläge Wind Luftdruck Luftfeuchtigkeit
    00:00 +5°C° 0 mm 1 m/S 722 mmHg 58%
    01:00 +5°C° 0 mm 1 m/S 722 mmHg 57%
    02:00 +4°C° 0 mm 1 m/S 722 mmHg 56%
    03:00 +4°C° 0 mm 1 m/S 721 mmHg 54%
    04:00 +4°C° 0 mm 1 m/S 721 mmHg 54%
    05:00 +4°C° 0 mm 1 m/S 721 mmHg 53%
    06:00 +4°C° 0 mm 1 m/S 721 mmHg 52%
    07:00 +6°C° 0 mm 1 m/S 721 mmHg 51%
    08:00 +8°C° 0 mm 1 m/S 721 mmHg 50%
    09:00 +10°C° 0 mm 1 m/S 721 mmHg 49%
    10:00 +12°C° 0 mm 1 m/S 721 mmHg 45%
    11:00 +14°C° 0 mm 1 m/S 721 mmHg 41%
    12:00 +15°C° 0 mm 0 m/S 721 mmHg 37%
    13:00 +14°C° 0 mm 0 m/S 720 mmHg 41%
    14:00 +14°C° 0 mm 0 m/S 720 mmHg 45%
    15:00 +14°C° 0 mm 0 m/S 719 mmHg 49%
    16:00 +11°C° 0 mm 0 m/S 719 mmHg 54%
    17:00 +9°C° 0 mm 0 m/S 719 mmHg 59%
    18:00 +8°C° 0 mm 1 m/S 719 mmHg 64%
    19:00 +7°C° 0 mm 1 m/S 719 mmHg 65%
    20:00 +6°C° 0 mm 1 m/S 719 mmHg 66%
    21:00 +6°C° 0 mm 1 m/S 719 mmHg 67%
    22:00 +5°C° 0 mm 1 m/S 719 mmHg 67%
    23:00 +5°C° 0 mm 1 m/S 719 mmHg 67%

    übermorgen, 18 Februar, Montag

    Zeit Temperatur Niederschläge Wind Luftdruck Luftfeuchtigkeit
    00:00 +5°C° 0 mm 1 m/S 719 mmHg 67%
    01:00 +5°C° 0 mm 1 m/S 719 mmHg 67%
    02:00 +4°C° 0 mm 1 m/S 719 mmHg 67%
    03:00 +4°C° 0 mm 1 m/S 719 mmHg 67%
    04:00 +4°C° 0 mm 1 m/S 718 mmHg 66%
    05:00 +4°C° 0 mm 1 m/S 718 mmHg 65%
    06:00 +4°C° 0 mm 1 m/S 718 mmHg 64%
    07:00 +5°C° 0 mm 1 m/S 718 mmHg 61%
    08:00 +7°C° 0 mm 1 m/S 718 mmHg 57%
    09:00 +9°C° 0 mm 1 m/S 718 mmHg 53%
    10:00 +11°C° 0 mm 1 m/S 718 mmHg 49%
    11:00 +12°C° 0 mm 1 m/S 718 mmHg 45%
    12:00 +14°C° 0 mm 1 m/S 718 mmHg 41%
    13:00 +14°C° 0 mm 1 m/S 717 mmHg 44%
    14:00 +14°C° 0 mm 1 m/S 717 mmHg 48%
    15:00 +13°C° 0 mm 1 m/S 717 mmHg 51%
    16:00 +11°C° 0 mm 1 m/S 717 mmHg 57%
    17:00 +9°C° 0 mm 1 m/S 717 mmHg 64%
    18:00 +7°C° 0 mm 1 m/S 717 mmHg 71%
    19:00 +6°C° 0 mm 1 m/S 717 mmHg 72%
    20:00 +6°C° 0 mm 1 m/S 718 mmHg 74%
    21:00 +5°C° 0 mm 1 m/S 718 mmHg 75%
    22:00 +5°C° 0 mm 1 m/S 718 mmHg 75%
    23:00 +4°C° 0 mm 1 m/S 718 mmHg 75%

    19 Februar, Dienstag

    Zeit Temperatur Niederschläge Wind Luftdruck Luftfeuchtigkeit
    00:00 +4°C° 0 mm 1 m/S 718 mmHg 75%
    01:00 +4°C° 0 mm 1 m/S 718 mmHg 75%
    02:00 +4°C° 0 mm 1 m/S 718 mmHg 75%
    03:00 +3°C° 0 mm 1 m/S 718 mmHg 75%
    04:00 +3°C° 0 mm 1 m/S 718 mmHg 75%
    05:00 +3°C° 0 mm 1 m/S 718 mmHg 75%
    06:00 +3°C° 0 mm 1 m/S 718 mmHg 75%
    07:00 +5°C° 0 mm 1 m/S 718 mmHg 70%
    08:00 +7°C° 0 mm 1 m/S 719 mmHg 64%
    09:00 +8°C° 0 mm 1 m/S 719 mmHg 59%
    10:00 +8°C° 0 mm 2 m/S 719 mmHg 56%
    11:00 +10°C° 0 mm 2 m/S 719 mmHg 52%
    12:00 +12°C° 0 mm 2 m/S 719 mmHg 49%
    13:00 +12°C° 0 mm 2 m/S 719 mmHg 50%
    14:00 +12°C° 0 mm 2 m/S 719 mmHg 51%
    15:00 +12°C° 0 mm 1 m/S 718 mmHg 52%
    16:00 +10°C° 0 mm 1 m/S 718 mmHg 59%
    17:00 +8°C° 0 mm 1 m/S 719 mmHg 67%
    18:00 +6°C° 0 mm 1 m/S 719 mmHg 74%
    19:00 +6°C° 0 mm 1 m/S 719 mmHg 75%
    20:00 +5°C° 0 mm 1 m/S 719 mmHg 76%
    21:00 +5°C° 0 mm 1 m/S 719 mmHg 77%
    22:00 +4°C° 0 mm 1 m/S 719 mmHg 75%
    23:00 +4°C° 0 mm 1 m/S 719 mmHg 74%

    20 Februar, Mittwoch

    Zeit Temperatur Niederschläge Wind Luftdruck Luftfeuchtigkeit
    00:00 +4°C° 0 mm 1 m/S 719 mmHg 72%
    01:00 +4°C° 0 mm 1 m/S 719 mmHg 70%
    02:00 +4°C° 0 mm 1 m/S 719 mmHg 69%
    03:00 +3°C° 0 mm 1 m/S 719 mmHg 67%
    04:00 +3°C° 0 mm 1 m/S 719 mmHg 65%
    05:00 +3°C° 0 mm 1 m/S 719 mmHg 64%
    06:00 +3°C° 0 mm 1 m/S 719 mmHg 62%
    07:00 +5°C° 0 mm 1 m/S 720 mmHg 59%
    08:00 +7°C° 0 mm 1 m/S 720 mmHg 55%
    09:00 +8°C° 0 mm 0 m/S 721 mmHg 52%
    10:00 +9°C° 0 mm 0 m/S 721 mmHg 51%
    11:00 +11°C° 0 mm 0 m/S 721 mmHg 50%
    12:00 +12°C° 0 mm 0 m/S 721 mmHg 49%
    13:00 +12°C° 0 mm 0 m/S 721 mmHg 51%
    14:00 +12°C° 0 mm 0 m/S 721 mmHg 53%
    15:00 +12°C° 0 mm 0 m/S 720 mmHg 54%
    16:00 +11°C° 0 mm 1 m/S 721 mmHg 62%
    17:00 +9°C° 0 mm 1 m/S 721 mmHg 69%
    18:00 +7°C° 0 mm 1 m/S 721 mmHg 76%
    19:00 +7°C° 0 mm 1 m/S 721 mmHg 77%
    20:00 +6°C° 0 mm 1 m/S 721 mmHg 78%
    21:00 +6°C° 0 mm 1 m/S 721 mmHg 79%
    22:00 +6°C° 0 mm 1 m/S 721 mmHg 78%
    23:00 +5°C° 0 mm 1 m/S 722 mmHg 78%

    21 Februar, Donnerstag

    Zeit Temperatur Niederschläge Wind Luftdruck Luftfeuchtigkeit
    00:00 +5°C° 0 mm 1 m/S 722 mmHg 77%
    01:00 +5°C° 0 mm 1 m/S 722 mmHg 77%
    02:00 +5°C° 0 mm 1 m/S 722 mmHg 76%
    03:00 +5°C° 0 mm 1 m/S 722 mmHg 76%
    04:00 +4°C° 0 mm 1 m/S 722 mmHg 76%
    05:00 +4°C° 0 mm 1 m/S 722 mmHg 75%
    06:00 +4°C° 0 mm 1 m/S 722 mmHg 75%
    07:00 +6°C° 0 mm 1 m/S 722 mmHg 70%
    08:00 +7°C° 0 mm 0 m/S 723 mmHg 65%
    09:00 +9°C° 0 mm 0 m/S 723 mmHg 59%
    10:00 +10°C° 0 mm 0 m/S 723 mmHg 56%
    11:00 +12°C° 0 mm 0 m/S 723 mmHg 52%
    12:00 +13°C° 0 mm 0 m/S 723 mmHg 49%
    13:00 +13°C° 0 mm 0 m/S 723 mmHg 50%
    14:00 +13°C° 0 mm 0 m/S 722 mmHg 51%
    15:00 +13°C° 0 mm 0 m/S 722 mmHg 52%
    16:00 +12°C° 0 mm 1 m/S 722 mmHg 60%
    17:00 +10°C° 0 mm 1 m/S 722 mmHg 68%
    18:00 +8°C° 0 mm 1 m/S 722 mmHg 76%
    19:00 +6°C° 0 mm 0 m/S 723 mmHg 77%
    20:00 +6°C° 0 mm 0 m/S 723 mmHg 79%
    21:00 +5°C° 0 mm 0 m/S 723 mmHg 80%
    22:00 +5°C° 0 mm 0 m/S 723 mmHg 80%
    23:00 +5°C° 0 mm 0 m/S 723 mmHg 80%
    Mehr zeigen